Theta_e
348 349 350 351 351 351 348 346 347 348 349 349 349 349 348 345 343 340 336 334 333 333 331 326 322 320 317 311 312 309 308 306 302 305 308 310 310 311 311 311 314 309 310
349 349 350 350 350 348 348 338 337 344 348 350 349 350 347 346 341 336 334 333 333 330 326 321 318 317 311 311 310 307 307 307 304 302 306 309 309 307 307 307 309 312 310
349 350 350 349 348 347 339 333 332 332 332 331 329 336 346 342 338 335 335 333 330 326 322 318 315 314 310 309 308 308 308 309 307 305 304 308 305 306 304 304 306 306 313
333 345 345 347 344 339 337 333 331 329 328 329 330 337 342 340 339 335 334 330 325 323 318 315 314 312 310 308 308 308 307 306 305 306 304 303 302 303 302 301 302 305 306
325 327 343 343 343 336 335 334 333 333 331 329 327 326 328 332 338 333 329 325 318 311 309 308 306 309 312 310 304 302 302 300 300 300 299 299 299 298 297 300 300 302 305
321 323 328 341 341 337 335 334 335 333 331 329 327 326 327 335 318 318 321 318 313 308 304 304 305 307 307 307 307 306 302 297 297 297 297 296 295 296 297 298 299 299 299
322 325 327 337 339 338 336 333 332 329 324 324 326 329 327 323 311 312 313 315 309 304 302 302 303 304 304 302 304 304 304 304 303 299 297 297 296 297 296 296 296 297 298
321 324 328 336 335 336 331 328 330 326 324 324 327 325 324 320 309 306 310 312 308 307 306 305 300 296 298 302 301 300 299 299 301 304 300 300 299 299 298 298 298 300 301
320 323 328 335 334 335 330 326 325 327 330 329 327 322 319 314 305 305 312 308 305 305 304 300 297 293 295 296 303 303 301 299 303 304 303 301 299 298 298 299 299 298 296
322 324 329 328 329 334 333 332 331 330 322 325 317 317 312 311 303 303 308 304 299 296 294 294 296 294 295 298 301 302 300 299 299 300 301 298 297 297 299 296 298 297 296
325 326 326 325 325 327 327 323 319 318 317 311 308 307 308 311 306 302 302 303 298 294 291 290 291 294 294 296 297 299 297 294 298 297 300 303 301 300 301 297 299 299 297
320 325 322 324 323 321 318 317 316 314 312 309 305 303 302 304 305 300 300 300 300 295 291 289 291 293 293 295 294 294 293 294 295 298 295 294 293 293 295 298 300 303 306
316 319 322 322 320 317 314 313 313 312 309 307 305 300 298 298 300 299 297 297 296 292 291 292 292 292 293 294 295 296 296 296 294 294 292 293 293 294 295 296 297 298 304
311 313 315 314 314 313 314 313 311 309 308 306 304 300 299 296 296 297 297 295 295 294 295 292 293 294 296 296 297 296 294 294 294 293 293 293 292 294 294 294 293 294 295
303 303 303 301 299 295 296 301 309 312 308 305 304 303 299 299 298 297 293 292 293 294 292 293 292 292 293 293 292 293 293 294 294 293 293 293 292 292 294 293 292 292 293
301 301 301 300 300 299 298 295 295 300 298 296 297 301 299 298 294 292 293 293 293 293 294 293 293 294 293 293 293 292 292 294 293 294 292 292 293 292 293 292 291 290 290
299 301 300 299 299 298 297 297 294 294 293 293 294 295 297 293 291 291 291 290 290 292 294 293 292 293 293 294 293 291 291 293 293 292 292 292 293 293 293 292 291 291 290
298 297 298 297 297 296 296 296 296 294 292 291 290 291 290 290 290 290 290 290 289 292 292 291 291 293 294 293 292 291 291 292 292 291 291 291 291 292 292 291 290 288 288
298 297 296 295 294 293 292 291 291 290 288 287 287 288 289 289 290 290 292 292 291 291 291 291 292 293 293 292 292 291 291 291 291 290 290 290 291 290 289 290 289 287 287
297 294 294 294 293 293 292 291 290 289 288 288 288 289 292 292 292 292 294 293 292 292 290 291 290 290 291 293 292 291 290 289 289 289 288 289 290 290 289 289 289 288 286
298 297 291 294 294 293 292 291 290 290 289 289 291 291 286 293 293 293 293 293 292 290 289 289 288 289 290 290 291 290 289 288 288 289 288 288 289 289 289 289 288 288 286
299 299 297 295 295 295 293 292 291 290 291 291 291 291 287 293 292 291 291 291 292 291 290 290 289 289 288 288 289 289 287 287 288 289 289 289 288 289 288 288 287 287 287
299 298 298 297 297 293 294 294 293 293 293 293 292 292 293 291 291 291 291 291 290 290 290 289 288 287 286 286 286 286 285 284 286 287 288 288 288 288 287 286 287 286 286
299 299 297 297 298 296 295 295 293 291 294 294 293 292 291 291 289 289 289 289 289 290 289 288 288 286 284 284 283 283 283 283 285 285 287 288 286 287 287 286 286 287 285
299 299 297 297 297 296 296 295 294 294 294 293 291 290 290 290 289 290 289 289 289 289 288 286 285 285 284 283 283 283 283 283 284 283 286 288 287 286 286 285 286 286 286
298 299 297 297 296 297 296 294 293 293 292 292 291 291 290 289 289 289 289 289 289 288 287 285 284 283 283 283 283 283 283 283 283 284 286 287 286 285 284 285 285 285 285
Wind_Speed
21 20 19 18 20 18 13 9 12 17 17 16 17 14 12 11 10 10 11 13 12 10 7 8 6 5 4 4 5 4 4 3 2 4 1 2 3 3 4 5 5 5 3
22 20 19 17 17 15 16 8 3 7 16 16 16 14 13 14 9 9 13 12 13 12 9 9 8 5 5 5 5 5 4 2 3 2 2 5 3 2 3 4 5 5 5
21 19 16 15 14 14 12 10 7 7 11 16 15 4 12 10 11 7 11 11 15 11 10 8 9 7 5 5 5 5 4 1 1 1 1 1 2 3 4 4 4 5 4
6 14 14 14 12 12 15 16 13 11 10 15 14 12 8 7 9 9 8 10 14 12 9 6 7 6 6 6 6 6 4 3 3 3 4 1 2 2 3 3 5 3 3
14 9 17 12 13 14 15 17 19 16 7 16 18 15 16 11 3 4 8 9 13 14 10 10 8 9 11 10 6 5 6 4 3 4 3 2 3 4 3 3 2 3 2
15 11 10 15 15 16 17 18 18 17 16 15 16 12 16 9 10 12 9 9 13 13 11 11 8 11 9 14 15 11 7 5 4 4 2 2 1 1 2 3 3 4 4
15 13 14 11 13 15 15 15 16 14 14 13 13 13 13 10 16 16 14 10 12 10 12 11 8 6 6 8 12 12 9 9 5 5 4 3 2 1 1 2 2 1 1
13 15 12 10 13 13 9 14 14 12 15 14 13 14 16 17 28 22 16 13 11 11 10 9 9 5 5 8 7 7 5 4 4 3 5 5 4 4 3 2 2 3 1
13 15 14 11 13 16 16 14 12 14 14 15 16 18 18 19 28 24 18 12 11 9 10 10 8 6 6 6 7 7 6 2 4 6 6 7 8 5 3 2 5 5 3
13 9 9 4 7 9 15 15 14 14 15 12 12 15 18 18 21 22 18 12 13 10 8 7 11 8 9 10 8 8 8 3 3 2 5 3 4 3 4 2 1 3 2
8 7 6 9 13 13 9 16 17 16 16 17 17 13 12 16 17 21 17 12 12 10 7 5 3 9 10 10 10 7 4 2 3 3 3 4 4 2 2 3 4 2 2
2 13 10 10 12 16 18 10 16 19 18 15 17 12 8 9 18 17 15 16 16 11 7 4 5 9 8 10 7 8 6 3 4 2 4 4 4 2 2 2 2 5 4
8 13 11 10 11 18 22 14 8 13 15 13 11 11 9 8 8 16 16 18 17 10 6 8 9 8 8 6 7 4 4 3 3 4 5 4 3 0 4 5 6 6 2
11 9 12 14 13 14 11 13 12 12 10 12 11 11 10 9 8 10 11 11 15 10 12 7 5 5 5 3 4 4 2 3 4 4 5 2 2 4 4 3 4 5 3
13 10 12 12 14 15 13 8 8 10 11 14 11 11 11 10 8 11 12 10 9 10 7 4 3 3 3 4 3 3 2 2 5 6 6 4 4 4 4 4 4 4 4
13 9 9 10 10 10 12 15 25 17 21 20 17 12 8 14 17 16 16 16 14 13 3 3 3 3 5 5 4 3 2 6 6 7 5 5 4 5 4 4 5 4 4
12 11 10 11 10 11 11 13 15 16 24 21 21 20 14 16 17 17 17 16 11 7 3 3 4 6 5 6 6 4 4 6 6 5 5 5 5 5 5 4 5 4 5
14 18 11 10 10 10 10 11 11 13 12 10 15 14 18 18 14 13 14 9 3 4 5 5 4 5 6 6 7 7 6 5 5 5 6 5 5 4 5 5 4 4 4
11 10 11 11 10 12 11 11 12 12 11 10 10 11 10 13 12 10 8 5 6 6 5 5 5 6 6 7 7 6 6 5 5 5 5 5 5 4 4 5 5 5 5
13 18 14 9 9 11 10 11 11 10 10 9 8 4 2 4 4 4 6 7 7 6 5 6 4 5 6 6 6 7 6 6 5 5 5 5 5 4 4 5 5 4 4
8 9 10 10 8 9 9 10 9 9 9 9 8 5 7 5 4 6 6 6 6 5 5 5 6 8 8 7 8 7 7 6 5 5 5 5 5 4 4 4 4 4 5
7 7 9 9 7 9 9 10 10 10 9 8 5 3 5 2 4 6 8 8 8 8 7 9 9 9 8 8 7 8 8 7 6 6 5 5 5 5 5 4 4 5 4
6 8 9 8 8 9 10 9 8 7 7 7 7 6 3 6 6 8 9 7 8 7 7 9 9 8 8 7 7 6 7 5 4 4 5 4 5 4 4 4 4 5 4
5 6 7 6 7 8 9 9 8 7 7 4 2 7 8 8 7 7 8 8 8 9 9 10 9 10 8 7 6 6 5 4 4 4 5 4 5 5 5 5 4 5 5
4 4 6 5 5 7 7 8 8 8 7 2 7 8 7 8 7 7 7 7 8 9 10 9 8 10 11 10 9 7 6 6 5 3 4 6 8 8 5 5 5 4 5
4 8 6 5 4 6 5 7 7 7 5 7 7 7 8 6 5 6 5 7 7 8 10 8 9 11 10 8 7 6 6 5 5 6 5 6 6 5 5 6 8 4 5
Wind_Direction
190 193 199 203 209 205 203 196 190 178 179 180 177 172 166 161 171 168 148 142 143 136 134 127 129 126 110 105 96 100 94 99 121 305 275 238 66 72 358 357 14 345 317
190 195 197 200 206 209 204 162 205 186 173 169 169 160 166 160 164 167 152 150 140 141 128 125 118 114 112 106 108 105 105 111 142 186 289 35 63 18 17 23 354 345 351
185 192 195 200 191 199 160 150 138 124 98 88 63 357 165 155 128 190 153 164 135 137 122 137 125 126 138 118 113 102 104 101 179 164 36 121 24 15 18 4 346 334 351
223 197 203 201 176 163 167 150 138 131 136 123 87 57 153 101 135 181 162 169 123 119 113 123 110 123 135 118 98 97 79 60 24 68 71 51 52 351 45 18 345 351 348
358 304 199 188 169 169 168 164 157 175 192 118 100 82 72 63 227 144 144 145 112 99 103 94 88 105 108 105 110 99 93 84 83 77 67 43 17 20 13 312 315 306 296
329 338 306 181 169 179 176 173 166 169 171 157 138 122 131 161 170 161 141 139 116 120 119 102 100 101 105 100 98 95 117 114 83 95 86 103 23 19 358 7 350 6 357
322 328 333 212 176 173 191 182 171 159 138 139 151 139 135 113 143 142 155 141 125 132 120 122 124 132 120 112 101 100 90 95 116 137 136 179 137 167 78 4 315 235 135
317 307 317 225 184 152 173 192 181 152 153 145 145 143 139 151 152 146 141 131 128 122 140 120 123 144 109 126 127 117 129 110 128 163 162 169 150 135 114 203 230 320 141
328 318 329 230 179 164 172 166 159 153 148 152 145 137 150 156 140 132 131 119 108 109 113 114 136 128 126 124 142 156 143 175 203 196 177 159 141 132 96 23 37 58 8
274 330 343 10 63 139 166 170 172 147 131 140 120 125 140 136 127 117 127 125 118 113 97 97 113 113 80 70 105 138 122 161 227 251 255 193 166 215 205 123 92 69 46
212 161 157 84 87 87 98 117 115 122 125 117 111 106 116 132 121 119 130 135 128 117 119 121 109 101 85 82 89 107 142 193 274 254 303 110 130 150 180 198 224 164 124
184 131 109 125 114 107 78 72 122 118 120 120 113 108 97 102 120 121 118 109 120 125 132 123 122 111 105 105 99 132 174 219 239 160 98 85 75 38 7 35 224 228 226
59 96 130 112 113 112 110 111 98 109 122 124 121 109 97 86 97 115 106 110 99 101 126 136 135 126 119 124 149 150 183 166 168 93 89 80 91 164 47 33 13 13 11
82 82 104 103 102 97 104 122 122 108 143 126 125 115 108 101 96 102 104 97 96 106 120 125 140 130 104 141 75 58 109 150 141 104 78 75 52 42 42 41 35 1 35
73 70 78 79 82 81 66 60 116 140 139 132 130 127 125 116 120 126 125 123 131 142 127 106 104 90 119 102 95 109 99 80 78 68 63 61 44 49 49 34 40 25 39
68 65 68 82 80 86 93 84 51 81 90 87 90 99 85 111 122 121 120 123 129 142 115 132 138 143 118 140 154 132 132 79 66 69 63 58 56 57 63 38 53 49 28
67 65 70 73 82 89 93 101 105 70 72 84 96 100 111 123 115 114 117 122 141 132 120 131 111 120 147 154 146 137 85 68 79 72 68 51 48 48 56 54 45 38 17
64 64 69 68 72 77 86 94 101 104 106 90 57 89 90 94 101 114 126 116 105 77 93 92 119 133 133 133 103 79 66 70 72 70 59 52 47 57 47 48 55 57 31
65 67 72 73 74 81 83 86 89 93 93 95 92 73 86 109 109 102 113 97 103 98 115 128 143 148 119 96 90 85 83 76 74 72 59 51 43 66 47 49 67 50 44
72 68 72 77 84 85 85 89 90 92 97 100 101 95 52 63 75 84 96 103 111 122 131 124 120 86 92 98 91 87 79 69 66 65 61 51 38 53 57 58 59 60 30
78 81 85 80 75 84 87 85 88 89 92 97 88 54 44 55 77 102 113 119 117 103 94 83 68 63 61 77 94 87 78 62 51 65 75 57 37 44 45 55 61 62 42
68 75 88 87 92 92 93 100 99 100 109 115 87 28 276 95 94 94 92 80 78 77 84 83 74 69 66 62 65 75 71 56 38 39 41 55 41 46 51 47 47 46 30
66 79 87 99 102 106 104 101 100 115 135 147 161 178 146 95 85 80 78 72 66 67 72 82 85 76 67 64 58 66 79 61 43 44 46 39 50 44 53 45 46 53 32
85 84 96 94 92 100 107 110 102 93 108 134 58 97 100 93 91 88 84 82 80 74 71 71 77 82 76 69 64 60 61 49 41 34 37 68 61 38 47 38 38 60 43
136 117 123 129 128 127 127 127 135 153 189 156 111 101 95 99 101 98 96 98 93 88 83 83 80 78 75 76 71 63 44 32 31 360 52 69 68 49 41 40 30 39 45
94 152 156 165 173 149 162 158 160 168 130 117 113 105 108 105 98 97 94 94 94 97 96 92 91 87 79 71 70 59 39 21 28 36 78 73 56 42 46 45 41 32 51